San Diego, CA

6:05 PM PST on February 11, 2016 (GMT -0800)
San Diego International-Lindbergh

Weather History for KSAN - December, 2013

Change the Weather History Date:

Saturday, December 14, 2013

  Actual Average Record
Temperature  
Mean Temperature 60 °F 56 °F  
Max Temperature 72 °F 65 °F 83 °F (1953)
Min Temperature 47 °F 48 °F 36 °F (1878)
Degree Days  
Heating Degree Days 5 9  
Month to date heating degree days 99 112  
Since 1 July heating degree days 169 257  
Cooling Degree Days 0 0  
Month to date cooling degree days 0 0  
Year to date cooling degree days 761 720  
Growing Degree Days 9 (Base 50)    
Moisture  
Dew Point 35 °F    
Average Humidity 49    
Maximum Humidity 83    
Minimum Humidity 15    
Precipitation  
Precipitation 0.00 in 0.05 in 1.18 in (1889)
Month to date precipitation 0.12 0.61  
Year to date precipitation 5.23 9.42  
Since 1 July precipitation 1.90  
Snow  
Snow 0.00 in - - ()
Month to date snowfall 0.0  
Year to date snowfall 0.0  
Snow Depth 0.00 in    
Sea Level Pressure  
Sea Level Pressure 30.23 in    
Wind  
Wind Speed 3 mph (NNW)    
Max Wind Speed 13 mph    
Max Gust Speed 16 mph    
Visibility 8 miles    
Events      
T = Trace of Precipitation, MM = Missing Value Source: NWS Daily Summary

Daily Weather History Graph

Daily Weather History Graph

Search for Another Location

Airport or City:

Trip Planner

Search our weather history database for the weather conditions in past years. The results will help you decide how hot, cold, wet, or windy it might be!

Date:

Astronomy

Dec. 14, 2013 Rise Set
Actual Time 6:43 AM PST 4:44 PM PST
Civil Twilight 6:15 AM PST 5:11 PM PST
Nautical Twilight 5:45 AM PST 5:42 PM PST
Astronomical Twilight 5:15 AM PST 6:12 PM PST
Moon 3:04 PM PST (12/14) 4:13 AM PST (12/14)
Length of Visible Light 10h 55m
Length of Day
10h 00m
Waxing Gibbous, 94% of the Moon is Illuminated
Dec 14
Waxing Gibbous
Dec 17
Full
Dec 25
Last Quarter
Jan 1
New
Jan 7
First Quarter

Hourly Weather History & Observations

Time (PST) Temp. Dew Point Humidity Pressure Visibility Wind Dir Wind Speed Gust Speed Precip Events Conditions
12:51 AM 51.1 °F 44.1 °F 77% 30.19 in 5.0 mi North 3.5 mph - N/A   Scattered Clouds
1:51 AM 50.0 °F 43.0 °F 77% 30.20 in 4.0 mi Calm Calm - N/A   Scattered Clouds
2:51 AM 48.9 °F 42.1 °F 77% 30.20 in 5.0 mi Calm Calm - N/A   Partly Cloudy
3:51 AM 48.0 °F 41.0 °F 77% 30.21 in 5.0 mi North 3.5 mph - N/A   Clear
4:51 AM 48.0 °F 39.9 °F 74% 30.21 in 6.0 mi North 4.6 mph - N/A   Clear
5:51 AM 48.0 °F 39.0 °F 71% 30.23 in 6.0 mi Calm Calm - N/A   Partly Cloudy
6:51 AM 46.9 °F 39.0 °F 74% 30.25 in 10.0 mi Calm Calm - N/A   Scattered Clouds
7:51 AM 50.0 °F 39.9 °F 68% 30.27 in 7.0 mi Calm Calm - N/A   Partly Cloudy
8:51 AM 55.0 °F 43.0 °F 64% 30.29 in 7.0 mi Calm Calm - N/A   Partly Cloudy
9:51 AM 61.0 °F 41.0 °F 48% 30.28 in 7.0 mi Calm Calm - N/A   Partly Cloudy
10:51 AM 68.0 °F 36.0 °F 31% 30.27 in 7.0 mi West 3.5 mph - N/A   Partly Cloudy
11:51 AM 70.0 °F 35.1 °F 28% 30.24 in 9.0 mi NW 5.8 mph - N/A   Partly Cloudy
12:51 PM 70.0 °F 33.1 °F 26% 30.22 in 7.0 mi WNW 6.9 mph - N/A   Partly Cloudy
1:51 PM 72.0 °F 25.0 °F 17% 30.20 in 10.0 mi WNW 5.8 mph - N/A   Partly Cloudy
2:51 PM 71.1 °F 21.0 °F 15% 30.21 in 10.0 mi NW 8.1 mph - N/A   Partly Cloudy
3:51 PM 69.1 °F 27.0 °F 21% 30.21 in 10.0 mi NNW 9.2 mph - N/A   Partly Cloudy
4:51 PM 66.0 °F 37.0 °F 34% 30.22 in 10.0 mi North 9.2 mph - N/A   Scattered Clouds
5:51 PM 64.9 °F 28.0 °F 25% 30.22 in 10.0 mi North 10.4 mph - N/A   Scattered Clouds
6:51 PM 64.0 °F 30.0 °F 28% 30.22 in 10.0 mi NNE 3.5 mph - N/A   Partly Cloudy
7:51 PM 62.1 °F 28.0 °F 28% 30.23 in 10.0 mi Calm Calm - N/A   Partly Cloudy
8:51 PM 59.0 °F 35.1 °F 41% 30.24 in 10.0 mi Calm Calm - N/A   Partly Cloudy
9:51 PM 57.0 °F 28.9 °F 34% 30.24 in 10.0 mi Calm Calm - N/A   Partly Cloudy
10:51 PM 54.0 °F 32.0 °F 43% 30.25 in 10.0 mi Calm Calm - N/A   Partly Cloudy
11:51 PM 55.0 °F 27.0 °F 34% 30.24 in 10.0 mi North 3.5 mph - N/A   Partly Cloudy